Year,Month,Day,Hour,Minute,Value (Times are PST for temperature in C)
2019,03,28,00,00,6.80
2019,03,28,00,01,6.80
2019,03,28,00,02,6.80
2019,03,28,00,04,6.80
2019,03,28,00,06,6.70
2019,03,28,00,07,6.70
2019,03,28,00,08,6.70
2019,03,28,00,10,6.70
2019,03,28,00,11,6.70
2019,03,28,00,12,6.70
2019,03,28,00,13,6.70
2019,03,28,00,14,6.70
2019,03,28,00,15,6.70
2019,03,28,00,16,6.70
2019,03,28,00,18,6.70
2019,03,28,00,19,6.80
2019,03,28,00,21,6.80
2019,03,28,00,23,6.80
2019,03,28,00,24,6.80
2019,03,28,00,26,6.80
2019,03,28,00,28,6.80
2019,03,28,00,29,6.80
2019,03,28,00,31,6.80
2019,03,28,00,32,6.80
2019,03,28,00,33,6.80
2019,03,28,00,34,6.70
2019,03,28,00,36,6.70
2019,03,28,00,38,6.70
2019,03,28,00,40,6.60
2019,03,28,00,42,6.60
2019,03,28,00,44,6.60
2019,03,28,00,45,6.50
2019,03,28,00,46,6.50
2019,03,28,00,48,6.50
2019,03,28,00,49,6.40
2019,03,28,00,50,6.40
2019,03,28,00,51,6.40
2019,03,28,00,53,6.40
2019,03,28,00,55,6.30
2019,03,28,00,56,6.30
2019,03,28,00,58,6.30
2019,03,28,00,59,6.30
2019,03,28,01,01,6.30
2019,03,28,01,02,6.20
2019,03,28,01,04,6.20
2019,03,28,01,05,6.20
2019,03,28,01,06,6.20
2019,03,28,01,07,6.20
2019,03,28,01,09,6.20
2019,03,28,01,10,6.10
2019,03,28,01,12,6.10
2019,03,28,01,13,6.10
2019,03,28,01,15,6.10
2019,03,28,01,16,6.00
2019,03,28,01,17,6.00
2019,03,28,01,19,6.00
2019,03,28,01,20,5.90
2019,03,28,01,22,6.00
2019,03,28,01,23,5.90
2019,03,28,01,24,5.90
2019,03,28,01,25,5.90
2019,03,28,01,27,5.90
2019,03,28,01,28,5.90
2019,03,28,01,29,5.90
2019,03,28,01,30,5.90
2019,03,28,01,31,5.90
2019,03,28,01,32,5.90
2019,03,28,01,34,5.90
2019,03,28,01,35,5.90
2019,03,28,01,36,5.90
2019,03,28,01,37,5.80
2019,03,28,01,38,5.80
2019,03,28,01,39,5.80
2019,03,28,01,41,5.80
2019,03,28,01,42,5.80
2019,03,28,01,44,5.70
2019,03,28,01,45,5.60
2019,03,28,01,47,5.60
2019,03,28,01,48,5.60
2019,03,28,01,49,5.50
2019,03,28,01,50,5.50
2019,03,28,01,51,5.50
2019,03,28,01,52,5.40
2019,03,28,01,53,5.40
2019,03,28,01,54,5.40
2019,03,28,01,55,5.40
2019,03,28,01,56,5.40
2019,03,28,01,57,5.40
2019,03,28,01,58,5.40
2019,03,28,02,00,5.40
2019,03,28,02,01,5.40
2019,03,28,02,02,5.30
2019,03,28,02,03,5.30
2019,03,28,02,04,5.30
2019,03,28,02,05,5.30
2019,03,28,02,06,5.30
2019,03,28,02,07,5.30
2019,03,28,02,08,5.30
2019,03,28,02,09,5.40
2019,03,28,02,10,5.40
2019,03,28,02,11,5.30
2019,03,28,02,12,5.40
2019,03,28,02,14,5.40
2019,03,28,02,15,5.40
2019,03,28,02,16,5.40
2019,03,28,02,17,5.40
2019,03,28,02,19,5.40
2019,03,28,02,20,5.40
2019,03,28,02,22,5.40
2019,03,28,02,23,5.40
2019,03,28,02,25,5.40
2019,03,28,02,26,5.40
2019,03,28,02,27,5.40
2019,03,28,02,28,5.40
2019,03,28,02,30,5.40
2019,03,28,02,31,5.40
2019,03,28,02,32,5.40
2019,03,28,02,33,5.40
2019,03,28,02,34,5.40
2019,03,28,02,35,5.40
2019,03,28,02,36,5.40
2019,03,28,02,37,5.40
2019,03,28,02,38,5.40
2019,03,28,02,39,5.40
2019,03,28,02,40,5.40
2019,03,28,02,41,5.40
2019,03,28,02,43,5.40
2019,03,28,02,44,5.40
2019,03,28,02,46,5.50
2019,03,28,02,47,5.50
2019,03,28,02,48,5.50
2019,03,28,02,49,5.50
2019,03,28,02,50,5.50
2019,03,28,02,52,5.50
2019,03,28,02,53,5.50
2019,03,28,02,54,5.60
2019,03,28,02,55,5.60
2019,03,28,02,56,5.60
2019,03,28,02,57,5.60
2019,03,28,02,58,5.60
2019,03,28,03,00,5.60
2019,03,28,03,02,5.60
2019,03,28,03,03,5.60
2019,03,28,03,04,5.60
2019,03,28,03,05,5.60
2019,03,28,03,06,5.70
2019,03,28,03,07,5.70
2019,03,28,03,08,5.70
2019,03,28,03,09,5.70
2019,03,28,03,10,5.70
2019,03,28,03,11,5.70
2019,03,28,03,12,5.70
2019,03,28,03,13,5.70
2019,03,28,03,14,5.70
2019,03,28,03,15,5.70
2019,03,28,03,16,5.70
2019,03,28,03,17,5.70
2019,03,28,03,18,5.70
2019,03,28,03,19,5.70
2019,03,28,03,20,5.70
2019,03,28,03,22,5.70
2019,03,28,03,23,5.70
2019,03,28,03,24,5.70
2019,03,28,03,25,5.70
2019,03,28,03,26,5.70
2019,03,28,03,27,5.70
2019,03,28,03,28,5.70
2019,03,28,03,29,5.70
2019,03,28,03,30,5.70
2019,03,28,03,32,5.70
2019,03,28,03,33,5.60
2019,03,28,03,34,5.60
2019,03,28,03,35,5.60
2019,03,28,03,36,5.50
2019,03,28,03,37,5.40
2019,03,28,03,38,5.40
2019,03,28,03,40,5.40
2019,03,28,03,41,5.30
2019,03,28,03,42,5.30
2019,03,28,03,43,5.30
2019,03,28,03,44,5.30
2019,03,28,03,45,5.20
2019,03,28,03,46,5.20
2019,03,28,03,47,5.20
2019,03,28,03,48,5.20
2019,03,28,03,49,5.20
2019,03,28,03,50,5.20
2019,03,28,03,51,5.20
2019,03,28,03,52,5.20
2019,03,28,03,54,5.20
2019,03,28,03,55,5.20
2019,03,28,03,56,5.20
2019,03,28,03,57,5.20
2019,03,28,03,58,5.20
2019,03,28,03,59,5.20
2019,03,28,04,00,5.20
2019,03,28,04,01,5.20
2019,03,28,04,02,5.20
2019,03,28,04,03,5.20
2019,03,28,04,04,5.20
2019,03,28,04,05,5.20
2019,03,28,04,06,5.20
2019,03,28,04,07,5.20
2019,03,28,04,08,5.20
2019,03,28,04,09,5.20
2019,03,28,04,10,5.20
2019,03,28,04,11,5.20
2019,03,28,04,12,5.20
2019,03,28,04,13,5.20
2019,03,28,04,14,5.20
2019,03,28,04,15,5.20
2019,03,28,04,16,5.30
2019,03,28,04,17,5.30
2019,03,28,04,18,5.30
2019,03,28,04,19,5.30
2019,03,28,04,20,5.30
2019,03,28,04,21,5.30
2019,03,28,04,22,5.30
2019,03,28,04,23,5.30
2019,03,28,04,24,5.40
2019,03,28,04,25,5.40
2019,03,28,04,26,5.40
2019,03,28,04,27,5.40
2019,03,28,04,28,5.40
2019,03,28,04,29,5.40
2019,03,28,04,30,5.40
2019,03,28,04,31,5.40
2019,03,28,04,32,5.40
2019,03,28,04,33,5.40
2019,03,28,04,34,5.40
2019,03,28,04,36,5.40
2019,03,28,04,37,5.40
2019,03,28,04,38,5.40
2019,03,28,04,39,5.30
2019,03,28,04,40,5.30
2019,03,28,04,41,5.30
2019,03,28,04,42,5.30
2019,03,28,04,43,5.30
2019,03,28,04,44,5.30
2019,03,28,04,45,5.30
2019,03,28,04,47,5.30
2019,03,28,04,48,5.20
2019,03,28,04,49,5.20
2019,03,28,04,50,5.20
2019,03,28,04,51,5.20
2019,03,28,04,52,5.20
2019,03,28,04,53,5.20
2019,03,28,04,54,5.20
2019,03,28,04,55,5.20
2019,03,28,04,56,5.20
2019,03,28,04,57,5.20
2019,03,28,04,58,5.20
2019,03,28,04,59,5.20
2019,03,28,05,00,5.30
2019,03,28,05,01,5.30
2019,03,28,05,02,5.20
2019,03,28,05,03,5.30
2019,03,28,05,05,5.30
2019,03,28,05,06,5.30
2019,03,28,05,07,5.30
2019,03,28,05,08,5.30
2019,03,28,05,09,5.30
2019,03,28,05,10,5.30
2019,03,28,05,11,5.30
2019,03,28,05,12,5.30
2019,03,28,05,13,5.30
2019,03,28,05,14,5.30
2019,03,28,05,15,5.30
2019,03,28,05,16,5.30
2019,03,28,05,17,5.30
2019,03,28,05,18,5.30
2019,03,28,05,20,5.30
2019,03,28,05,21,5.30
2019,03,28,05,23,5.30
2019,03,28,05,24,5.30
2019,03,28,05,25,5.30
2019,03,28,05,26,5.30
2019,03,28,05,27,5.30
2019,03,28,05,29,5.30
2019,03,28,05,30,5.30
2019,03,28,05,31,5.30
2019,03,28,05,32,5.30
2019,03,28,05,33,5.30
2019,03,28,05,35,5.30
2019,03,28,05,36,5.30
2019,03,28,05,37,5.30
2019,03,28,05,38,5.30
2019,03,28,05,40,5.30
2019,03,28,05,41,5.40
2019,03,28,05,42,5.30
2019,03,28,05,44,5.40
2019,03,28,05,45,5.40
2019,03,28,05,46,5.40
2019,03,28,05,47,5.40
2019,03,28,05,48,5.40
2019,03,28,05,50,5.40
2019,03,28,05,51,5.40
2019,03,28,05,52,5.40
2019,03,28,05,53,5.40
2019,03,28,05,54,5.40
2019,03,28,05,56,5.40
2019,03,28,05,57,5.40
2019,03,28,05,58,5.40
2019,03,28,05,59,5.40
2019,03,28,06,00,5.40
2019,03,28,06,02,5.40
2019,03,28,06,03,5.40
2019,03,28,06,04,5.40
2019,03,28,06,06,5.40
2019,03,28,06,07,5.40
2019,03,28,06,08,5.40
2019,03,28,06,09,5.50
2019,03,28,06,10,5.50
2019,03,28,06,11,5.50
2019,03,28,06,12,5.50
2019,03,28,06,13,5.60
2019,03,28,06,14,5.60
2019,03,28,06,15,5.60
2019,03,28,06,16,5.60
2019,03,28,06,17,5.60
2019,03,28,06,18,5.60
2019,03,28,06,19,5.60
2019,03,28,06,20,5.60
2019,03,28,06,21,5.60
2019,03,28,06,22,5.60
2019,03,28,06,23,5.70
2019,03,28,06,24,5.70
2019,03,28,06,25,5.70
2019,03,28,06,26,5.70
2019,03,28,06,27,5.70
2019,03,28,06,28,5.70
2019,03,28,06,29,5.70
2019,03,28,06,30,5.80
2019,03,28,06,31,5.80
2019,03,28,06,32,5.80
2019,03,28,06,33,5.80
2019,03,28,06,34,5.80
2019,03,28,06,35,5.80
2019,03,28,06,36,5.80
2019,03,28,06,37,5.80
2019,03,28,06,38,5.90
2019,03,28,06,39,5.90
2019,03,28,06,40,5.90
2019,03,28,06,41,5.90
2019,03,28,06,42,5.90
2019,03,28,06,43,5.90
2019,03,28,06,44,5.90
2019,03,28,06,45,5.90
2019,03,28,06,46,5.90
2019,03,28,06,47,6.00
2019,03,28,06,48,6.00
2019,03,28,06,49,6.00
2019,03,28,06,50,6.00
2019,03,28,06,51,6.00
2019,03,28,06,52,6.10
2019,03,28,06,53,6.10
2019,03,28,06,54,6.10
2019,03,28,06,55,6.10
2019,03,28,06,56,6.10
2019,03,28,06,57,6.10
2019,03,28,06,58,6.10
2019,03,28,06,59,6.10
2019,03,28,07,00,6.10
2019,03,28,07,01,6.10
2019,03,28,07,02,6.10
2019,03,28,07,03,6.10
2019,03,28,07,04,6.10
2019,03,28,07,05,6.10
2019,03,28,07,06,6.10
2019,03,28,07,07,6.10
2019,03,28,07,08,6.10
2019,03,28,07,09,6.10
2019,03,28,07,10,6.10
2019,03,28,07,11,6.00
2019,03,28,07,12,6.00
2019,03,28,07,13,6.10
2019,03,28,07,14,6.00
2019,03,28,07,15,6.00
2019,03,28,07,16,6.00
2019,03,28,07,17,6.00
2019,03,28,07,18,6.00
2019,03,28,07,19,6.00
2019,03,28,07,20,6.00
2019,03,28,07,21,5.90
2019,03,28,07,22,5.90
2019,03,28,07,23,5.90
2019,03,28,07,24,5.90
2019,03,28,07,25,5.90
2019,03,28,07,26,5.90
2019,03,28,07,27,5.90
2019,03,28,07,28,5.90
2019,03,28,07,29,5.80
2019,03,28,07,30,5.80
2019,03,28,07,31,5.80
2019,03,28,07,32,5.80
2019,03,28,07,33,5.80
2019,03,28,07,34,5.80
2019,03,28,07,35,5.80
2019,03,28,07,36,5.80
2019,03,28,07,37,5.80
2019,03,28,07,38,5.80
2019,03,28,07,39,5.70
2019,03,28,07,40,5.70
2019,03,28,07,41,5.70
2019,03,28,07,42,5.70
2019,03,28,07,43,5.70
2019,03,28,07,44,5.70
2019,03,28,07,45,5.70
2019,03,28,07,46,5.60
2019,03,28,07,47,5.60
2019,03,28,07,48,5.60
2019,03,28,07,49,5.60
2019,03,28,07,50,5.60
2019,03,28,07,51,5.60
2019,03,28,07,52,5.50
2019,03,28,07,53,5.50
2019,03,28,07,54,5.50
2019,03,28,07,55,5.50
2019,03,28,07,56,5.50
2019,03,28,07,57,5.50
2019,03,28,07,58,5.50
2019,03,28,07,59,5.50
2019,03,28,08,00,5.50
2019,03,28,08,01,5.50
2019,03,28,08,02,5.50
2019,03,28,08,03,5.50
2019,03,28,08,04,5.50
2019,03,28,08,05,5.50
2019,03,28,08,06,5.50
2019,03,28,08,07,5.50
2019,03,28,08,08,5.60
2019,03,28,08,09,5.60
2019,03,28,08,10,5.60
2019,03,28,08,11,5.60
2019,03,28,08,12,5.60
2019,03,28,08,13,5.60
2019,03,28,08,14,5.60
2019,03,28,08,15,5.60
2019,03,28,08,16,5.60
2019,03,28,08,17,5.60
2019,03,28,08,18,5.70
2019,03,28,08,19,5.70
2019,03,28,08,20,5.70
2019,03,28,08,21,5.70
2019,03,28,08,22,5.70
2019,03,28,08,23,5.70
2019,03,28,08,24,5.70
2019,03,28,08,25,5.80
2019,03,28,08,26,5.80
2019,03,28,08,27,5.80
2019,03,28,08,28,5.90
2019,03,28,08,29,5.90
2019,03,28,08,30,6.00
2019,03,28,08,31,6.10
2019,03,28,08,32,6.10
2019,03,28,08,33,6.10
2019,03,28,08,34,6.20
2019,03,28,08,35,6.20
2019,03,28,08,36,6.20
2019,03,28,08,37,6.30
2019,03,28,08,38,6.30
2019,03,28,08,39,6.30
2019,03,28,08,40,6.40
2019,03,28,08,41,6.40
2019,03,28,08,42,6.40
2019,03,28,08,43,6.50
2019,03,28,08,44,6.60
2019,03,28,08,45,6.60
2019,03,28,08,46,6.60
2019,03,28,08,47,6.70
2019,03,28,08,48,6.70
2019,03,28,08,49,6.70
2019,03,28,08,50,6.80
2019,03,28,08,51,6.80
2019,03,28,08,52,6.90
2019,03,28,08,53,6.90
2019,03,28,08,54,7.00
2019,03,28,08,55,7.10
2019,03,28,08,56,7.20
2019,03,28,08,57,7.30
2019,03,28,08,58,7.30
2019,03,28,08,59,7.40
2019,03,28,09,00,7.40
2019,03,28,09,01,7.50
2019,03,28,09,02,7.60
2019,03,28,09,03,7.70
2019,03,28,09,04,7.70
2019,03,28,09,05,7.70
2019,03,28,09,06,7.70
2019,03,28,09,07,7.80
2019,03,28,09,08,7.80
2019,03,28,09,09,7.80
2019,03,28,09,10,7.80
2019,03,28,09,11,7.80
2019,03,28,09,12,7.90
2019,03,28,09,13,7.90
2019,03,28,09,14,8.10
2019,03,28,09,15,8.10
2019,03,28,09,16,8.20
2019,03,28,09,17,8.30
2019,03,28,09,18,8.30
2019,03,28,09,19,8.40
2019,03,28,09,20,8.40
2019,03,28,09,21,8.50
2019,03,28,09,22,8.60
2019,03,28,09,23,8.70
2019,03,28,09,24,8.70
2019,03,28,09,25,8.80
2019,03,28,09,26,8.80
2019,03,28,09,27,8.90
2019,03,28,09,28,9.00
2019,03,28,09,29,9.10
2019,03,28,09,30,9.10
2019,03,28,09,31,9.20
2019,03,28,09,32,9.20
2019,03,28,09,33,9.30
2019,03,28,09,34,9.30
2019,03,28,09,35,9.40
2019,03,28,09,36,9.40
2019,03,28,09,37,9.60
2019,03,28,09,38,9.70
2019,03,28,09,39,9.70
2019,03,28,09,40,9.80
2019,03,28,09,41,9.80
2019,03,28,09,42,9.90
2019,03,28,09,43,10.00
2019,03,28,09,44,10.10
2019,03,28,09,45,10.20
2019,03,28,09,46,10.20
2019,03,28,09,47,10.30
2019,03,28,09,48,10.30
2019,03,28,09,49,10.40
2019,03,28,09,50,10.40
2019,03,28,09,51,10.40
2019,03,28,09,52,10.50
2019,03,28,09,53,10.60
2019,03,28,09,54,10.60
2019,03,28,09,55,10.60
2019,03,28,09,56,10.60
2019,03,28,09,57,10.60
2019,03,28,09,58,10.70
2019,03,28,09,59,10.70
2019,03,28,10,00,10.70
2019,03,28,10,01,10.70
2019,03,28,10,02,10.70
2019,03,28,10,03,10.80
2019,03,28,10,04,10.80
2019,03,28,10,05,10.80
2019,03,28,10,06,10.80
2019,03,28,10,07,10.90
2019,03,28,10,08,10.80
2019,03,28,10,09,10.90
2019,03,28,10,10,10.90
2019,03,28,10,11,10.90
2019,03,28,10,12,10.90
2019,03,28,10,13,10.90
2019,03,28,10,14,11.00
2019,03,28,10,15,11.00
2019,03,28,10,16,11.00
2019,03,28,10,17,11.10
2019,03,28,10,18,11.10
2019,03,28,10,19,11.10
2019,03,28,10,20,11.10
2019,03,28,10,21,11.20
2019,03,28,10,22,11.20
2019,03,28,10,23,11.30
2019,03,28,10,24,11.30
2019,03,28,10,25,11.40
2019,03,28,10,26,11.50
2019,03,28,10,27,11.60
2019,03,28,10,28,11.70
2019,03,28,10,29,11.80
2019,03,28,10,30,11.80
2019,03,28,10,31,11.90
2019,03,28,10,32,11.90
2019,03,28,10,33,12.00
2019,03,28,10,34,12.10
2019,03,28,10,35,12.20
2019,03,28,10,36,12.20
2019,03,28,10,37,12.30
2019,03,28,10,38,12.30
2019,03,28,10,39,12.40
2019,03,28,10,40,12.40
2019,03,28,10,41,12.40
2019,03,28,10,42,12.30
2019,03,28,10,43,12.30
2019,03,28,10,44,12.30
2019,03,28,10,45,12.20
2019,03,28,10,46,12.20
2019,03,28,10,47,12.20
2019,03,28,10,48,12.20
2019,03,28,10,49,12.30
2019,03,28,10,50,12.30
2019,03,28,10,51,12.40
2019,03,28,10,52,12.40
2019,03,28,10,53,12.60
2019,03,28,10,54,12.60
2019,03,28,10,55,12.70
2019,03,28,10,56,12.80
2019,03,28,10,57,12.80
2019,03,28,10,58,12.90
2019,03,28,10,59,12.90
2019,03,28,11,00,12.90
2019,03,28,11,01,12.90
2019,03,28,11,02,13.00
2019,03,28,11,03,13.00
2019,03,28,11,04,13.10
2019,03,28,11,05,13.10
2019,03,28,11,06,13.10
2019,03,28,11,07,13.10
2019,03,28,11,08,13.10
2019,03,28,11,09,13.10
2019,03,28,11,10,13.10
2019,03,28,11,11,13.20
2019,03,28,11,12,13.20
2019,03,28,11,13,13.20
2019,03,28,11,14,13.20
2019,03,28,11,15,13.20
2019,03,28,11,16,13.10
2019,03,28,11,17,13.10
2019,03,28,11,18,13.00
2019,03,28,11,19,12.90
2019,03,28,11,20,12.90
2019,03,28,11,21,12.80
2019,03,28,11,22,12.80
2019,03,28,11,23,12.90
2019,03,28,11,24,12.90
2019,03,28,11,25,12.90
2019,03,28,11,26,12.90
2019,03,28,11,27,12.90
2019,03,28,11,28,12.90
2019,03,28,11,29,12.90
2019,03,28,11,30,13.00
2019,03,28,11,31,13.10
2019,03,28,11,32,13.10
2019,03,28,11,33,13.20
2019,03,28,11,34,13.20
2019,03,28,11,35,13.20
2019,03,28,11,36,13.30
2019,03,28,11,37,13.40
2019,03,28,11,38,13.50
2019,03,28,11,39,13.60
2019,03,28,11,40,13.60
2019,03,28,11,41,13.70
2019,03,28,11,42,13.70
2019,03,28,11,43,13.70
2019,03,28,11,44,13.60
2019,03,28,11,45,13.60
2019,03,28,11,46,13.60
2019,03,28,11,47,13.60
2019,03,28,11,48,13.70
2019,03,28,11,49,13.70
2019,03,28,11,50,13.70
2019,03,28,11,51,13.80
2019,03,28,11,52,13.80
2019,03,28,11,53,13.80
2019,03,28,11,54,13.90
2019,03,28,11,55,13.90
2019,03,28,11,56,14.00
2019,03,28,11,57,14.10
2019,03,28,11,58,14.10
2019,03,28,11,59,14.20
2019,03,28,12,00,14.30
2019,03,28,12,01,14.30
2019,03,28,12,02,14.40
2019,03,28,12,03,14.60
2019,03,28,12,04,14.60
2019,03,28,12,05,14.70
2019,03,28,12,06,14.70
2019,03,28,12,07,14.70
2019,03,28,12,08,14.70
2019,03,28,12,09,14.70
2019,03,28,12,10,14.70
2019,03,28,12,11,14.70
2019,03,28,12,12,14.70
2019,03,28,12,13,14.70
2019,03,28,12,14,14.60
2019,03,28,12,15,14.60
2019,03,28,12,16,14.70
2019,03,28,12,17,14.70
2019,03,28,12,18,14.80
2019,03,28,12,19,14.80
2019,03,28,12,20,14.90
2019,03,28,12,21,14.90
2019,03,28,12,23,15.00
2019,03,28,12,24,15.00
2019,03,28,12,25,15.00
2019,03,28,12,26,14.90
2019,03,28,12,27,14.90
2019,03,28,12,28,14.90
2019,03,28,12,29,14.90
2019,03,28,12,30,15.00
2019,03,28,12,31,14.90
2019,03,28,12,32,14.90
2019,03,28,12,33,14.90
2019,03,28,12,34,14.90
2019,03,28,12,35,15.00
2019,03,28,12,36,15.00
2019,03,28,12,37,15.00
2019,03,28,12,38,15.10
2019,03,28,12,39,15.10
2019,03,28,12,40,15.10
2019,03,28,12,41,15.20
2019,03,28,12,42,15.20
2019,03,28,12,43,15.20
2019,03,28,12,45,15.30
2019,03,28,12,46,15.30
2019,03,28,12,47,15.40
2019,03,28,12,48,15.40
2019,03,28,12,50,15.30
2019,03,28,12,51,15.30
2019,03,28,12,52,15.30
2019,03,28,12,53,15.30
2019,03,28,12,54,15.30
2019,03,28,12,55,15.30
2019,03,28,12,56,15.40
2019,03,28,12,57,15.40
2019,03,28,12,58,15.40
2019,03,28,12,59,15.40
2019,03,28,13,01,15.50
2019,03,28,13,02,15.60
2019,03,28,13,04,15.60
2019,03,28,13,05,15.70
2019,03,28,13,06,15.70
2019,03,28,13,07,15.70
2019,03,28,13,08,15.80
2019,03,28,13,09,15.80
2019,03,28,13,10,15.90
2019,03,28,13,11,15.90
2019,03,28,13,12,16.00
2019,03,28,13,13,16.10
2019,03,28,13,14,16.10
2019,03,28,13,15,16.10
2019,03,28,13,16,16.10
2019,03,28,13,17,16.10
2019,03,28,13,18,16.20
2019,03,28,13,19,16.20
2019,03,28,13,20,16.20
2019,03,28,13,21,16.30
2019,03,28,13,22,16.30
2019,03,28,13,23,16.30
2019,03,28,13,24,16.40
2019,03,28,13,25,16.40
2019,03,28,13,26,16.40
2019,03,28,13,27,16.50
2019,03,28,13,29,16.50
2019,03,28,13,30,16.50
2019,03,28,13,31,16.40
2019,03,28,13,32,16.40
2019,03,28,13,33,16.40
2019,03,28,13,34,16.40
2019,03,28,13,35,16.40
2019,03,28,13,36,16.50
2019,03,28,13,37,16.60
2019,03,28,13,39,16.60
2019,03,28,13,40,16.70
2019,03,28,13,42,16.80
2019,03,28,13,43,16.80
2019,03,28,13,44,16.90
2019,03,28,13,45,16.80
2019,03,28,13,46,16.80
2019,03,28,13,47,16.70
2019,03,28,13,48,16.70
2019,03,28,13,49,16.60
2019,03,28,13,50,16.60
2019,03,28,13,51,16.60
2019,03,28,13,53,16.60
2019,03,28,13,54,16.60
2019,03,28,13,55,16.60
2019,03,28,13,56,16.60
2019,03,28,13,57,16.70
2019,03,28,13,58,16.70
2019,03,28,13,59,16.80
2019,03,28,14,01,16.90
2019,03,28,14,02,17.00
2019,03,28,14,03,17.00
2019,03,28,14,04,17.00
2019,03,28,14,05,17.00
2019,03,28,14,06,17.00
2019,03,28,14,07,17.00
2019,03,28,14,08,16.90
2019,03,28,14,10,16.80
2019,03,28,14,11,16.80
2019,03,28,14,12,16.70
2019,03,28,14,14,16.80
2019,03,28,14,15,16.80
2019,03,28,14,16,16.80
2019,03,28,14,17,16.80
2019,03,28,14,18,16.90
2019,03,28,14,19,16.90
2019,03,28,14,21,16.90
2019,03,28,14,22,16.90
2019,03,28,14,23,17.00
2019,03,28,14,25,16.90
2019,03,28,14,26,16.90
2019,03,28,14,27,16.90
2019,03,28,14,28,16.90
2019,03,28,14,29,16.90
2019,03,28,14,30,16.80
2019,03,28,14,32,16.80
2019,03,28,14,33,16.80
2019,03,28,14,34,16.70
2019,03,28,14,36,16.60
2019,03,28,14,38,16.50
2019,03,28,14,39,16.40
2019,03,28,14,40,16.40
2019,03,28,14,41,16.30
2019,03,28,14,43,16.30
2019,03,28,14,45,16.20
2019,03,28,14,47,16.20
2019,03,28,14,49,16.10
2019,03,28,14,50,16.10
2019,03,28,14,51,16.00
2019,03,28,14,52,16.00
2019,03,28,14,53,16.00
2019,03,28,14,54,16.00
2019,03,28,14,55,15.90
2019,03,28,14,56,15.90
2019,03,28,14,58,15.90
2019,03,28,15,00,15.90
2019,03,28,15,01,15.90
2019,03,28,15,03,15.90
2019,03,28,15,04,15.90
2019,03,28,15,06,15.90
2019,03,28,15,07,15.90
2019,03,28,15,08,15.90
2019,03,28,15,09,15.90
2019,03,28,15,11,15.90
2019,03,28,15,12,16.00
2019,03,28,15,13,16.00
2019,03,28,15,14,16.10
2019,03,28,15,15,16.10
2019,03,28,15,17,16.10
2019,03,28,15,19,16.20
2019,03,28,15,20,16.20
2019,03,28,15,21,16.20
2019,03,28,15,22,16.30
2019,03,28,15,24,16.30
2019,03,28,15,26,16.30
2019,03,28,15,27,16.30
2019,03,28,15,28,16.40
2019,03,28,15,30,16.30
2019,03,28,15,31,16.30
2019,03,28,15,32,16.30
2019,03,28,15,33,16.20
2019,03,28,15,35,16.20
2019,03,28,15,36,16.20
2019,03,28,15,38,16.10
2019,03,28,15,40,16.00
2019,03,28,15,41,16.00
2019,03,28,15,42,16.00
2019,03,28,15,44,15.90
2019,03,28,15,46,15.90
2019,03,28,15,48,15.90
2019,03,28,15,50,15.90
2019,03,28,15,51,15.90
2019,03,28,15,52,15.80
2019,03,28,15,53,15.80
2019,03,28,15,55,15.70
2019,03,28,15,57,15.60
2019,03,28,15,59,15.60
2019,03,28,16,00,15.60
2019,03,28,16,01,15.60
2019,03,28,16,03,15.70
2019,03,28,16,04,15.70
2019,03,28,16,05,15.80
2019,03,28,16,06,15.80
2019,03,28,16,07,15.90
2019,03,28,16,09,16.00
2019,03,28,16,10,16.00
2019,03,28,16,11,16.20
2019,03,28,16,13,16.20
2019,03,28,16,14,16.30
2019,03,28,16,15,16.30
2019,03,28,16,16,16.30
2019,03,28,16,17,16.30
2019,03,28,16,19,16.20
2019,03,28,16,21,16.20
2019,03,28,16,22,16.20
2019,03,28,16,24,16.20
2019,03,28,16,25,16.20
2019,03,28,16,27,16.10
2019,03,28,16,29,15.90
2019,03,28,16,31,15.90
2019,03,28,16,32,15.90
2019,03,28,16,34,15.80
2019,03,28,16,36,15.80
2019,03,28,16,37,15.80
2019,03,28,16,38,15.70
2019,03,28,16,40,15.70
2019,03,28,16,41,15.60
2019,03,28,16,43,15.60
2019,03,28,16,44,15.50
2019,03,28,16,46,15.40
2019,03,28,16,48,15.40
2019,03,28,16,49,15.40
2019,03,28,16,51,15.40
2019,03,28,16,52,15.40
2019,03,28,16,53,15.40
2019,03,28,16,54,15.30
2019,03,28,16,55,15.30
2019,03,28,16,57,15.30
2019,03,28,16,58,15.30
2019,03,28,16,59,15.30
2019,03,28,17,00,15.30
2019,03,28,17,02,15.30
2019,03,28,17,04,15.40
2019,03,28,17,05,15.40
2019,03,28,17,07,15.50
2019,03,28,17,08,15.50
2019,03,28,17,09,15.60
2019,03,28,17,10,15.60
2019,03,28,17,11,15.70
2019,03,28,17,13,15.70
2019,03,28,17,14,15.80
2019,03,28,17,15,15.80
2019,03,28,17,16,15.80
2019,03,28,17,17,15.80
2019,03,28,17,19,15.90
2019,03,28,17,20,15.90
2019,03,28,17,21,15.90
2019,03,28,17,22,15.90
2019,03,28,17,24,16.00
2019,03,28,17,25,16.10
2019,03,28,17,27,16.10
2019,03,28,17,28,16.20
2019,03,28,17,30,16.20
2019,03,28,17,31,16.20
2019,03,28,17,32,16.20
2019,03,28,17,33,16.20
2019,03,28,17,35,16.20
2019,03,28,17,37,16.20
2019,03,28,17,38,16.20
2019,03,28,17,39,16.20
2019,03,28,17,41,16.20
2019,03,28,17,43,16.20
2019,03,28,17,44,16.20
2019,03,28,17,46,16.20
2019,03,28,17,47,16.10
2019,03,28,17,49,16.10
2019,03,28,17,51,16.20
2019,03,28,17,53,16.10
2019,03,28,17,54,16.20
2019,03,28,17,55,16.20
2019,03,28,17,56,16.20
2019,03,28,17,57,16.10
2019,03,28,17,59,16.10
2019,03,28,18,00,16.10
2019,03,28,18,01,16.00
2019,03,28,18,03,15.90
2019,03,28,18,05,15.80
2019,03,28,18,07,15.70
2019,03,28,18,08,15.70
2019,03,28,18,09,15.60
2019,03,28,18,11,15.50
2019,03,28,18,13,15.40
2019,03,28,18,15,15.30
2019,03,28,18,16,15.20
2019,03,28,18,17,15.10
2019,03,28,18,18,15.10
2019,03,28,18,20,15.00
2019,03,28,18,21,14.90
2019,03,28,18,23,14.90
2019,03,28,18,24,14.80
2019,03,28,18,25,14.80
2019,03,28,18,26,14.80
2019,03,28,18,27,14.80
2019,03,28,18,29,14.80
2019,03,28,18,31,14.80
2019,03,28,18,33,14.70
2019,03,28,18,35,14.70
2019,03,28,18,37,14.70
2019,03,28,18,38,14.70
2019,03,28,18,39,14.60
2019,03,28,18,40,14.60
2019,03,28,18,41,14.60
2019,03,28,18,42,14.50
2019,03,28,18,43,14.40
2019,03,28,18,44,14.40
2019,03,28,18,45,14.30
2019,03,28,18,46,14.30
2019,03,28,18,47,14.30
2019,03,28,18,48,14.20
2019,03,28,18,50,14.20
2019,03,28,18,51,14.00
2019,03,28,18,53,13.90
2019,03,28,18,54,13.80
2019,03,28,18,55,13.70
2019,03,28,18,56,13.70
2019,03,28,18,58,13.70
2019,03,28,18,59,13.60
2019,03,28,19,00,13.50
2019,03,28,19,01,13.40
2019,03,28,19,02,13.40
2019,03,28,19,03,13.40
2019,03,28,19,04,13.30
2019,03,28,19,06,13.30
2019,03,28,19,08,13.30
2019,03,28,19,09,13.30
2019,03,28,19,11,13.20
2019,03,28,19,13,13.20
2019,03,28,19,15,13.20
2019,03,28,19,17,13.10
2019,03,28,19,18,13.10
2019,03,28,19,19,13.10
2019,03,28,19,20,13.10
2019,03,28,19,21,13.00
2019,03,28,19,22,13.00
2019,03,28,19,24,13.00
2019,03,28,19,26,12.90
2019,03,28,19,28,12.90
2019,03,28,19,29,12.90
2019,03,28,19,30,12.80
2019,03,28,19,32,12.80
2019,03,28,19,33,12.80
2019,03,28,19,34,12.80
2019,03,28,19,35,12.70
2019,03,28,19,36,12.70
2019,03,28,19,37,12.70
2019,03,28,19,38,12.60
2019,03,28,19,39,12.60
2019,03,28,19,41,12.60
2019,03,28,19,42,12.60
2019,03,28,19,44,12.50
2019,03,28,19,45,12.40
2019,03,28,19,46,12.40
2019,03,28,19,47,12.40
2019,03,28,19,48,12.40
2019,03,28,19,50,12.30
2019,03,28,19,51,12.30
2019,03,28,19,52,12.30
2019,03,28,19,53,12.30
2019,03,28,19,54,12.20
2019,03,28,19,56,12.20
2019,03,28,19,58,12.20
2019,03,28,20,00,12.10
2019,03,28,20,01,12.10
2019,03,28,20,02,12.10
2019,03,28,20,03,12.00
2019,03,28,20,04,12.00
2019,03,28,20,05,12.00
2019,03,28,20,06,11.90
2019,03,28,20,07,11.90
2019,03,28,20,09,11.90
2019,03,28,20,10,11.80
2019,03,28,20,11,11.80
2019,03,28,20,12,11.80
2019,03,28,20,13,11.80
2019,03,28,20,14,11.70
2019,03,28,20,15,11.70
2019,03,28,20,16,11.70
2019,03,28,20,17,11.70
2019,03,28,20,19,11.70
2019,03,28,20,20,11.60
2019,03,28,20,21,11.60
2019,03,28,20,22,11.60
2019,03,28,20,23,11.60
2019,03,28,20,24,11.50
2019,03,28,20,26,11.50
2019,03,28,20,28,11.40
2019,03,28,20,29,11.40
2019,03,28,20,30,11.40
2019,03,28,20,31,11.40